Date,TemperatureHighF,TemperatureAvgF,TemperatureLowF,DewpointHighF,DewpointAvgF,DewpointLowF,HumidityHigh,HumidityAvg,HumidityLow,PressureMaxIn,PressureMinIn,WindSpeedMaxMPH,WindSpeedAvgMPH,GustSpeedMaxMPH,PrecipitationSumIn
2013-1-1,49,47,45,44,38,30,95,73,49,30.05,29.86,15,3,15,0.06
2013-1-2,46,40,38,44,36,32,95,87,74,30.19,29.93,11,1,11,0.23
2013-1-3,41,36,29,32,27,23,89,68,53,30.23,30.14,10,1,10,0.06
2013-1-4,47,38,29,31,29,26,93,71,49,30.23,30.10,16,3,16,0.04
2013-1-5,50,41,32,34,30,25,81,66,48,30.36,30.18,12,2,12,0.00
2013-1-6,50,44,40,40,38,34,88,79,66,30.24,30.01,11,2,11,0.02
2013-1-7,50,44,37,38,33,30,90,67,47,30.43,30.10,20,2,20,0.01
2013-1-8,60,50,44,48,39,31,76,66,59,30.45,30.34,10,1,10,0.00
2013-1-9,69,60,53,55,50,45,77,68,54,30.40,30.26,15,1,15,0.00
2013-1-10,66,58,51,53,40,28,63,53,40,30.54,30.34,13,1,13,0.00
2013-1-11,51,51,51,31,31,31,46,46,46,30.48,30.09,0,0,0,0.00
2013-1-12,51,51,51,31,31,31,46,46,46,30.14,30.08,0,0,0,0.00
2013-1-13,66,57,51,62,45,31,99,67,46,30.13,30.03,9,1,9,0.00
2013-1-14,69,65,63,62,61,0,91,86,76,30.18,30.05,12,2,12,0.00
2013-1-15,66,66,66,62,62,62,87,87,87,30.23,30.06,0,0,0,0.00
2013-1-16,66,65,0,62,61,0,87,85,87,30.06,29.94,0,0,0,0.00
2013-1-17,48,44,35,48,43,34,99,97,95,30.07,29.93,16,2,19,1.17
2013-1-18,44,37,30,37,32,26,100,81,52,30.52,30.00,21,4,21,0.11
2013-1-19,57,42,28,41,33,26,94,73,43,30.49,30.09,19,2,20,0.00
2013-1-20,62,52,43,40,37,33,83,59,36,30.09,29.87,23,5,23,0.00
2013-1-21,58,48,35,42,34,26,75,59,44,30.06,29.78,21,3,21,0.00
2013-1-22,46,34,28,34,15,3,70,47,29,30.24,29.88,20,5,20,0.00
2013-1-23,34,29,23,18,10,5,66,45,29,30.34,30.08,17,3,17,0.00
2013-1-24,35,30,26,27,16,6,81,58,40,30.50,29.92,24,6,24,0.00
2013-1-25,31,27,22,25,18,9,93,70,50,30.50,30.07,11,2,11,0.00
2013-1-26,34,28,22,31,26,20,95,90,80,30.40,30.06,11,1,11,0.10
2013-1-27,39,33,28,30,24,20,92,68,49,30.58,30.40,11,1,11,0.04
2013-1-28,52,40,29,47,35,23,88,82,76,30.51,30.14,18,3,18,0.02
2013-1-29,73,58,50,58,52,47,93,80,57,30.14,30.05,16,4,16,0.00
2013-1-30,74,66,55,64,61,52,96,84,68,30.07,29.45,33,9,34,0.00
2013-1-31,70,52,40,64,36,20,90,57,31,29.96,29.29,45,11,45,0.46